Location: Tel Aviv
(32.0670°N, 34.7670°E)
Time: 13:47:55
(UTC+02:00)

Transit 4A - Visible Passes

Search period start: 19 January 2022 00:00
Search period end: 29 January 2022 00:00
Orbit: 864 x 981 km, 66.8° (Epoch: 18 January)

Date Brightness Start Highest point End Pass type
(mag) Time Alt. Az. Time Alt. Az. Time Alt. Az.
19 Jan 10.2 18:53:47 10° NW 18:58:52 25° WSW 19:03:56 10° SSW visible
20 Jan 8.0 17:15:49 10° NNW 17:22:13 68° ENE 17:28:33 10° SE visible
20 Jan 10.9 19:04:17 10° WNW 19:07:55 16° WSW 19:11:31 10° SW visible
21 Jan 8.2 17:25:05 10° NNW 17:31:30 81° WSW 17:37:53 10° SSE visible
22 Jan 9.0 17:34:31 10° NW 17:40:43 53° WSW 17:46:52 10° S visible
23 Jan 10.0 17:44:12 10° NW 17:49:52 34° WSW 17:55:28 10° S visible
24 Jan 11.2 05:17:06 10° SE 05:19:29 13° ESE 05:21:53 10° ENE visible
24 Jan 10.8 17:54:16 10° WNW 17:58:56 22° WSW 18:03:35 10° SSW visible
25 Jan 10.6 05:24:09 10° SSE 05:28:28 21° ESE 05:32:53 10° ENE visible
25 Jan 11.4 18:05:11 10° WNW 18:07:56 13° WSW 18:10:41 10° SW visible
26 Jan 9.7 05:32:16 10° S 05:37:32 34° ESE 05:42:56 10° NE visible
27 Jan 8.8 05:40:54 10° S 05:46:40 54° ESE 05:52:36 10° NE visible
28 Jan 8.0 05:49:55 10° SSW 05:55:51 84° ESE 06:02:02 10° NNE visible
